CW3202 Weather Reports


Display with metric or nautical units.
time (UTC)temp
F
wind
direction
speed
MPH
gust
MPH
rain 1hr
in
rain 24hr
in
rain mn
in
humidity
%
barometer
mb
20260510054207 54 213 2.0 2.0 0.00 0.00 0.00 93 1016.0
20260510053707 54 213 1.0 1.0 0.00 0.00 0.00 93 1016.0
20260510053207 53 213 0.0 2.0 0.00 0.00 0.00 92 1015.9
20260510052707 54 213 0.0 2.0 0.00 0.00 0.00 91 1016.0
20260510052207 54 213 0.0 1.0 0.00 0.00 0.00 91 1015.9
20260510051707 54 213 0.0 0.0 0.00 0.00 0.00 90 1015.9
20260510051206 54 212 0.0 1.0 0.00 0.00 0.00 90 1016.0
20260510050707 54 213 0.0 1.0 0.00 0.00 0.00 89 1015.9
20260510050207 55 212 0.0 1.0 0.00 0.00 0.00 89 1015.9
20260510045707 55 212 1.0 1.0 0.00 0.00 0.00 89 1015.9
20260510045007 55 360 0.0 1.0 0.00 0.00 0.00 89 1015.9
20260510044307 55 360 0.0 1.0 0.00 0.00 0.00 88 1015.9
20260510043808 56 360 0.0 0.0 0.00 0.00 0.00 86 1015.8
20260510043307 56 360 0.0 0.0 0.00 0.00 0.00 86 1015.8
20260510042806 56 360 0.0 1.0 0.00 0.00 0.00 86 1015.8
20260510042307 56 360 0.0 1.0 0.00 0.00 0.00 85 1015.6
20260510041807 57 360 0.0 1.0 0.00 0.00 0.00 84 1015.6
20260510041307 57 360 0.0 1.0 0.00 0.00 0.00 83 1015.5
20260510040807 58 213 0.0 1.0 0.00 0.00 0.00 82 1015.6
20260510040307 58 213 1.0 1.0 0.00 0.00 0.00 82 1015.5
20260510035807 59 213 0.0 1.0 0.00 0.00 0.00 82 1015.5
20260510035107 60 213 1.0 1.0 0.00 0.00 0.00 81 1015.3
20260510034607 60 213 1.0 1.0 0.00 0.00 0.00 80 1015.3
20260510034107 61 213 0.0 1.0 0.00 0.00 0.00 78 1015.2
20260510033407 62 213 0.0 1.0 0.00 0.00 0.00 76 1015.2
20260510032907 62 213 1.0 1.0 0.00 0.00 0.00 75 1015.2
20260510032407 63 360 0.0 1.0 0.00 0.00 0.00 75 1015.2
20260510031907 64 360 0.0 2.0 0.00 0.00 0.00 75 1015.1
20260510031406 64 360 1.0 2.0 0.00 0.00 0.00 74 1015.1
20260510030907 65 212 1.0 1.0 0.00 0.00 0.00 74 1015.2
20260510030407 66 360 0.0 1.0 0.00 0.00 0.00 71 1015.1
20260510025707 67 360 1.0 1.0 0.00 0.00 0.00 69 1015.1
20260510025107 68 360 0.0 1.0 0.00 0.00 0.00 65 1015.0
20260510024607 69 213 1.0 1.0 0.00 0.00 0.00 67 1015.0
20260510023907 70 213 0.0 1.0 0.00 0.00 0.00 61 1015.0
20260510023407 70 213 0.0 1.0 0.00 0.00 0.00 56 1014.9
20260510022907 70 213 0.0 2.0 0.00 0.00 0.00 57 1014.7
20260510022207 70 213 1.0 2.0 0.00 0.00 0.00 55 1014.7
20260510021707 70 209 0.0 2.0 0.00 0.00 0.00 55 1014.7
20260510021207 70 206 0.0 2.0 0.00 0.00 0.00 55 1014.6
20260510020706 70 153 1.0 3.0 0.00 0.00 0.00 56 1014.8
20260510020006 70 146 1.0 3.0 0.00 0.00 0.00 54 1014.9
20260510015507 71 216 1.0 4.0 0.00 0.00 0.00 55 1015.0
20260510015007 71 214 2.0 4.0 0.00 0.00 0.00 53 1015.1
20260510014506 71 211 1.0 6.0 0.00 0.00 0.00 58 1015.1
20260510014007 71 221 3.0 6.0 0.00 0.00 0.00 54 1015.1
20260510013507 71 196 5.0 5.0 0.00 0.00 0.00 54 1015.1
20260510012807 72 212 2.0 4.0 0.00 0.00 0.00 52 1015.3
20260510012307 72 191 2.0 4.0 0.00 0.00 0.00 55 1015.2
20260510011807 72 196 2.0 3.0 0.00 0.00 0.00 57 1015.4
20260510011307 72 200 1.0 5.0 0.00 0.00 0.00 54 1015.4
20260510010807 72 173 2.0 5.0 0.00 0.00 0.00 53 1015.4
20260510010307 72 196 3.0 4.0 0.00 0.00 0.00 52 1015.4
20260510005807 72 214 0.0 5.0 0.00 0.00 0.00 59 1015.4
20260510005307 71 246 1.0 5.0 0.00 0.00 0.00 52 1015.5
20260510004807 72 236 4.0 7.0 0.00 0.00 0.00 53 1015.6
20260510004107 72 236 5.0 7.0 0.00 0.00 0.00 55 1015.5
20260510003607 72 227 4.0 4.0 0.00 0.00 0.00 52 1015.5
20260510003107 72 238 3.0 4.0 0.00 0.00 0.00 52 1015.5
20260510002607 72 232 1.0 4.0 0.00 0.00 0.00 47 1015.6
20260510001907 72 254 2.0 5.0 0.00 0.00 0.00 50 1015.7
20260510001407 73 319 2.0 5.0 0.00 0.00 0.00 47 1015.8
20260510000707 73 267 3.0 8.0 0.00 0.00 0.00 49 1015.8
20260510000207 73 231 1.0 8.0 0.00 0.00 0.00 48 1015.8
20260509235707 73 250 8.0 8.0 0.00 0.00 0.00 49 1015.9
20260509235207 72 254 3.0 5.0 0.00 0.00 0.00 46 1016.0
20260509234707 72 306 2.0 4.0 0.00 0.00 0.00 48 1015.9
20260509234207 72 269 3.0 7.0 0.00 0.00 0.00 46 1016.1
20260509233607 72 327 4.0 7.0 0.00 0.00 0.00 48 1016.0
20260509233007 72 257 3.0 6.0 0.00 0.00 0.00 45 1016.1
20260509232507 73 287 3.0 5.0 0.00 0.00 0.00 48 1016.1
20260509232007 73 231 3.0 6.0 0.00 0.00 0.00 48 1016.1
20260509231507 73 245 1.0 6.0 0.00 0.00 0.00 48 1016.2
20260509231007 73 309 4.0 4.0 0.00 0.00 0.00 45 1016.2
20260509230307 73 247 4.0 4.0 0.00 0.00 0.00 46 1016.3
20260509225407 73 291 3.0 7.0 0.00 0.00 0.00 46 1016.3
20260509224906 73 297 1.0 7.0 0.00 0.00 0.00 47 1016.5
20260509224407 74 249 7.0 7.0 0.00 0.00 0.00 45 1016.5
20260509223907 73 262 0.0 8.0 0.00 0.00 0.00 46 1016.4
20260509223407 74 228 2.0 8.0 0.00 0.00 0.00 48 1016.6
20260509222907 74 236 3.0 6.0 0.00 0.00 0.00 51 1016.6
20260509222207 73 280 2.0 7.0 0.00 0.00 0.00 54 1016.5
20260509221507 73 292 2.0 7.0 0.00 0.00 0.00 47 1016.8
20260509221007 73 235 5.0 5.0 0.00 0.00 0.00 48 1016.9
20260509220507 73 230 4.0 5.0 0.00 0.00 0.00 47 1016.9
20260509215807 74 194 4.0 6.0 0.00 0.00 0.00 51 1017.0
20260509215107 74 215 2.0 7.0 0.00 0.00 0.00 46 1017.0
20260509214607 75 227 7.0 7.0 0.00 0.00 0.00 47 1017.3
20260509214107 76 179 3.0 3.0 0.00 0.00 0.00 52 1017.2
20260509213607 76 131 1.0 4.0 0.00 0.00 0.00 52 1017.3
20260509213107 76 129 1.0 5.0 0.00 0.00 0.00 49 1017.3
20260509212607 75 158 1.0 5.0 0.00 0.00 0.00 56 1017.3
20260509212107 75 176 5.0 6.0 0.00 0.00 0.00 53 1017.5
20260509211607 75 119 3.0 6.0 0.00 0.00 0.00 57 1017.5
20260509210707 75 147 1.0 5.0 0.00 0.00 0.00 54 1017.7
20260509210207 75 119 5.0 6.0 0.00 0.00 0.00 55 1017.7
20260509205707 75 169 2.0 6.0 0.00 0.00 0.00 50 1017.9
20260509205007 74 144 2.0 3.0 0.00 0.00 0.00 59 1017.9
20260509204507 74 160 1.0 3.0 0.00 0.00 0.00 55 1017.9
20260509204007 73 169 1.0 4.0 0.00 0.00 0.00 55 1017.9
20260509203507 73 167 0.0 6.0 0.00 0.00 0.00 53 1018.0
20260509203007 73 142 2.0 6.0 0.00 0.00 0.00 56 1017.9
20260509202507 73 183 6.0 6.0 0.00 0.00 0.00 57 1018.2
20260509202007 72 137 4.0 4.0 0.00 0.00 0.00 59 1018.3
20260509201507 72 157 2.0 4.0 0.00 0.00 0.00 58 1018.3
20260509201007 71 179 0.0 3.0 0.00 0.00 0.00 58 1018.3
20260509200507 71 179 1.0 3.0 0.00 0.00 0.00 62 1018.3
20260509200007 71 186 3.0 3.0 0.00 0.00 0.00 59 1018.5
20260509195307 70 140 2.0 2.0 0.00 0.00 0.00 62 1018.7
20260509194807 71 181 2.0 4.0 0.00 0.00 0.00 62 1018.7
20260509194307 71 167 1.0 4.0 0.00 0.00 0.00 60 1018.9
20260509193807 71 157 1.0 4.0 0.00 0.00 0.00 64 1019.0
20260509193307 70 117 4.0 4.0 0.00 0.00 0.00 67 1018.9
20260509192807 70 189 3.0 5.0 0.00 0.00 0.00 65 1018.9
20260509192306 69 141 2.0 6.0 0.00 0.00 0.00 69 1019.0
20260509191807 68 166 5.0 6.0 0.00 0.00 0.00 67 1019.1
20260509191306 68 225 0.0 6.0 0.00 0.00 0.00 65 1019.2
20260509190807 68 175 2.0 6.0 0.00 0.00 0.00 65 1019.1
20260509190307 68 164 1.0 5.0 0.00 0.00 0.00 72 1019.1
20260509185607 67 167 1.0 5.0 0.00 0.00 0.00 70 1019.3
20260509184906 68 215 4.0 4.0 0.00 0.00 0.00 73 1019.3
20260509184407 67 182 2.0 7.0 0.00 0.00 0.00 71 1019.4
20260509183907 67 108 1.0 7.0 0.00 0.00 0.00 69 1019.4
20260509183406 66 46 2.0 4.0 0.00 0.00 0.00 72 1019.5
20260509182907 66 25 3.0 4.0 0.00 0.00 0.00 70 1019.6
20260509182407 66 142 2.0 4.0 0.00 0.00 0.00 74 1019.6
20260509181907 65 55 3.0 4.0 0.00 0.00 0.00 76 1019.6
20260509181407 64 169 2.0 4.0 0.00 0.00 0.00 76 1019.7
20260509180907 64 196 1.0 3.0 0.00 0.00 0.00 71 1019.7
20260509180407 65 184 3.0 3.0 0.00 0.00 0.00 75 1019.8
20260509175707 64 145 2.0 4.0 0.00 0.00 0.00 76 1019.9
20260509175207 64 79 4.0 4.0 0.00 0.00 0.00 76 1019.8
20260509174707 63 182 1.0 2.0 0.00 0.00 0.00 82 1020.0
20260509174207 62 184 1.0 2.0 0.00 0.00 0.00 84 1020.0
20260509173706 61 185 1.0 2.0 0.00 0.00 0.00 84 1020.1
20260509173207 60 187 1.0 2.0 0.00 0.00 0.00 89 1020.3
20260509172507 58 188 1.0 1.0 0.00 0.00 0.00 91 1020.0
20260509172007 57 188 0.0 2.0 0.00 0.00 0.00 91 1020.2
20260509171507 56 187 0.0 2.0 0.00 0.00 0.00 94 1020.2
20260509171007 56 192 0.0 3.0 0.00 0.00 0.00 97 1020.3
20260509170507 54 192 1.0 3.0 0.00 0.00 0.00 98 1020.3
20260509170007 54 192 3.0 3.0 0.00 0.00 0.00 99 1020.3
20260509165507 54 217 1.0 2.0 0.00 0.00 0.00 100 1020.5
20260509164607 52 217 1.0 3.0 0.00 0.00 0.00 100 1020.5
20260509164107 52 360 2.0 3.0 0.00 0.00 0.00 100 1020.5
20260509163607 51 360 0.0 3.0 0.00 0.00 0.00 100 1020.6
20260509163107 51 360 2.0 3.0 0.00 0.00 0.00 100 1020.6
20260509162607 50 221 1.0 3.0 0.00 0.00 0.00 100 1020.8
20260509162107 50 222 3.0 3.0 0.00 0.00 0.00 100 1020.9
20260509161607 49 360 0.0 2.0 0.00 0.00 0.00 100 1020.9
20260509161107 48 227 2.0 2.0 0.00 0.00 0.00 100 1021.0
20260509160607 48 360 0.0 2.0 0.00 0.00 0.00 100 1021.1
20260509160106 47 360 1.0 2.0 0.00 0.00 0.00 99 1021.2
20260509155607 47 360 0.0 2.0 0.00 0.00 0.00 99 1021.3
20260509155106 47 360 1.0 2.0 0.00 0.00 0.00 99 1021.2
20260509154606 47 360 1.0 1.0 0.00 0.00 0.00 99 1021.3
20260509154107 46 360 0.0 1.0 0.00 0.00 0.00 100 1021.4
20260509153607 46 63 1.0 1.0 0.00 0.00 0.00 99 1021.4
20260509153107 46 61 0.0 1.0 0.00 0.00 0.00 99 1021.4
20260509152407 45 132 0.0 1.0 0.00 0.00 0.00 99 1021.5
20260509151907 45 132 1.0 2.0 0.00 0.00 0.00 99 1021.5
20260509151407 45 132 0.0 2.0 0.00 0.00 0.00 99 1021.3
20260509150707 45 119 1.0 2.0 0.00 0.00 0.00 99 1021.4
20260509150207 45 123 1.0 2.0 0.00 0.00 0.00 99 1021.4
20260509145707 44 123 0.0 2.0 0.00 0.00 0.00 99 1021.5
20260509145207 45 123 0.0 2.0 0.00 0.00 0.00 99 1021.6
20260509144707 45 138 1.0 1.0 0.00 0.00 0.00 99 1021.6
20260509144207 45 139 0.0 1.0 0.00 0.00 0.00 99 1021.7
20260509143707 44 138 0.0 1.0 0.00 0.00 0.00 99 1021.7
20260509143207 44 138 0.0 1.0 0.00 0.00 0.00 99 1021.7
20260509141907 44 360 0.0 1.0 0.00 0.00 0.00 99 1021.5
20260509141406 44 360 1.0 1.0 0.00 0.00 0.00 99 1021.5
20260509140907 44 360 1.0 2.0 0.00 0.00 0.00 99 1021.4
20260509140207 44 360 1.0 2.0 0.00 0.00 0.00 99 1021.5
20260509135707 44 360 0.0 2.0 0.00 0.00 0.00 99 1021.5
20260509135207 44 360 1.0 2.0 0.00 0.00 0.00 99 1021.5
20260509134707 44 360 2.0 2.0 0.00 0.00 0.00 99 1021.4
20260509134007 44 360 0.0 1.0 0.00 0.00 0.00 99 1021.4
20260509133506 44 360 1.0 1.0 0.00 0.00 0.00 99 1021.5
20260509133007 44 360 0.0 0.0 0.00 0.00 0.00 99 1021.4
20260509132507 44 360 0.0 1.0 0.00 0.00 0.00 99 1021.3
20260509132006 44 360 0.0 1.0 0.00 0.00 0.00 99 1021.5
20260509131307 44 360 0.0 1.0 0.00 0.00 0.00 99 1021.5
20260509130807 44 360 0.0 0.0 0.00 0.00 0.00 99 1021.5
20260509130306 44 360 0.0 0.0 0.00 0.00 0.00 99 1021.5
20260509125807 44 360 0.0 2.0 0.00 0.00 0.00 98 1021.4
20260509125308 44 360 0.0 2.0 0.00 0.00 0.00 99 1021.4
20260509124807 44 360 0.0 2.0 0.00 0.00 0.00 99 1021.5
20260509124012 44 360 0.0 1.0 0.00 0.00 0.00 98 1021.6
20260509123507 44 360 0.0 1.0 0.00 0.00 0.00 99 1021.5
20260509122807 44 360 1.0 1.0 0.00 0.00 0.00 99 1021.7
20260509122307 44 360 0.0 1.0 0.00 0.00 0.00 99 1021.8
20260509121807 44 360 0.0 0.0 0.00 0.00 0.00 98 1021.8
20260509121308 44 360 0.0 1.0 0.00 0.00 0.00 98 1021.7
20260509120807 44 360 0.0 1.0 0.00 0.00 0.00 99 1021.9
20260509120107 44 360 0.0 1.0 0.00 0.00 0.00 99 1021.9
20260509115607 44 360 0.0 0.0 0.00 0.00 0.00 99 1021.8
20260509115107 44 360 0.0 1.0 0.00 0.00 0.00 99 1021.7
20260509114607 45 360 0.0 1.0 0.00 0.00 0.00 99 1021.8
20260509114107 45 360 0.0 1.0 0.00 0.00 0.00 99 1021.8
20260509113607 45 360 0.0 1.0 0.00 0.00 0.00 99 1021.9
20260509113107 45 360 1.0 1.0 0.00 0.00 0.00 99 1021.8
20260509112607 45 360 0.0 1.0 0.00 0.00 0.00 99 1021.9
20260509112107 45 360 1.0 1.0 0.00 0.00 0.00 99 1021.9
20260509111607 45 360 0.0 1.0 0.00 0.00 0.00 99 1021.9
20260509111106 44 360 0.0 1.0 0.00 0.00 0.00 99 1021.9
20260509110607 44 360 0.0 1.0 0.00 0.00 0.00 99 1021.9
20260509105907 44 360 0.0 1.0 0.00 0.00 0.00 99 1022.0
20260509105407 44 360 1.0 1.0 0.00 0.00 0.00 99 1022.1
20260509104907 44 360 0.0 1.0 0.00 0.00 0.00 99 1022.2
20260509104407 44 360 0.0 1.0 0.00 0.00 0.00 99 1022.4
20260509103907 44 360 1.0 1.0 0.00 0.00 0.00 99 1022.4
20260509103407 44 360 0.0 0.0 0.00 0.00 0.00 99 1022.5
20260509102907 44 360 0.0 1.0 0.00 0.00 0.00 99 1022.4
20260509102407 44 360 0.0 1.0 0.00 0.00 0.00 99 1022.3
20260509101906 44 360 0.0 1.0 0.00 0.00 0.00 99 1022.2
20260509101407 44 360 1.0 1.0 0.00 0.00 0.00 99 1022.4
20260509100907 44 360 0.0 0.0 0.00 0.00 0.00 99 1022.3
20260509100207 44 360 0.0 0.0 0.00 0.00 0.00 98 1022.4
20260509095707 43 360 0.0 0.0 0.00 0.00 0.00 98 1022.3
20260509095007 43 360 0.0 0.0 0.00 0.00 0.00 98 1022.4
20260509094507 43 360 0.0 0.0 0.00 0.00 0.00 98 1022.4
20260509093607 43 360 0.0 0.0 0.00 0.00 0.00 98 1022.5
20260509093107 43 360 0.0 0.0 0.00 0.00 0.00 98 1022.2
20260509092607 42 360 0.0 0.0 0.00 0.00 0.00 98 1022.3
20260509091907 42 360 0.0 0.0 0.00 0.00 0.00 98 1022.4
20260509091407 42 360 0.0 1.0 0.00 0.00 0.00 98 1022.4
20260509090306 42 360 0.0 1.0 0.00 0.00 0.00 98 1022.5
20260509085807 42 360 0.0 1.0 0.00 0.00 0.00 98 1022.6
20260509085307 42 360 1.0 1.0 0.00 0.00 0.00 97 1022.5
20260509084807 42 360 1.0 1.0 0.00 0.00 0.00 97 1022.5
20260509084307 42 360 0.0 1.0 0.00 0.00 0.00 97 1022.5
20260509083807 42 360 0.0 1.0 0.00 0.00 0.00 96 1022.6
20260509083307 42 360 0.0 1.0 0.00 0.00 0.00 97 1022.7
20260509082806 43 360 0.0 1.0 0.00 0.00 0.00 97 1022.6
20260509082307 43 360 0.0 1.0 0.00 0.00 0.00 97 1022.7
20260509081407 43 360 1.0 1.0 0.00 0.00 0.00 97 1022.7
20260509080907 43 360 1.0 1.0 0.00 0.00 0.00 97 1022.6
20260509080407 43 360 0.0 1.0 0.00 0.00 0.00 97 1022.8
20260509075907 43 360 0.0 1.0 0.00 0.00 0.00 97 1022.7
20260509075407 43 360 0.0 2.0 0.00 0.00 0.00 97 1022.6
20260509074907 43 360 1.0 2.0 0.00 0.00 0.00 97 1022.7
20260509074407 43 360 0.0 1.0 0.00 0.00 0.00 96 1022.8
20260509073907 44 360 0.0 1.0 0.00 0.00 0.00 96 1022.8
20260509073407 44 360 0.0 0.0 0.00 0.00 0.00 96 1022.9
20260509072707 44 360 0.0 1.0 0.00 0.00 0.00 97 1022.8
20260509072007 44 360 1.0 1.0 0.00 0.00 0.00 97 1022.7
20260509071507 44 360 0.0 1.0 0.00 0.00 0.00 96 1022.8
20260509070808 44 360 0.0 0.0 0.00 0.00 0.00 96 1022.8
20260509070307 44 360 0.0 0.0 0.00 0.00 0.00 96 1022.7
20260509065807 45 360 0.0 0.0 0.00 0.00 0.00 96 1022.8
20260509065307 45 360 0.0 0.0 0.00 0.00 0.00 96 1022.8
20260509064807 45 360 0.0 0.0 0.00 0.00 0.00 96 1022.8
20260509064307 45 360 0.0 2.0 0.00 0.00 0.00 96 1022.9
20260509063807 45 360 0.0 2.0 0.00 0.00 0.00 95 1022.9
20260509063307 45 360 0.0 2.0 0.00 0.00 0.00 95 1022.9
20260509062807 46 360 2.0 2.0 0.00 0.00 0.00 96 1022.9
20260509062308 46 360 0.0 1.0 0.00 0.00 0.00 96 1023.0
20260509061807 46 360 0.0 1.0 0.00 0.00 0.00 96 1023.0
20260509061107 46 360 1.0 1.0 0.00 0.00 0.00 95 1022.8
20260509060607 47 360 0.0 1.0 0.00 0.00 0.00 96 1022.8
20260509060107 47 360 1.0 1.0 0.00 0.00 0.00 95 1022.8
20260509055606 47 360 0.0 1.0 0.00 0.00 0.00 95 1022.8
20260509055107 47 360 0.0 1.0 0.00 0.00 0.00 94 1022.8
20260509054607 47 360 0.0 0.0 0.00 0.00 0.00 94 1022.7